Flag for Germany Weather past 2 weeks in Kassel, Hesse, Germany

Now
84 °F

Clear.


Feels Like: 88 °F
Forecast: 59 / 75 °F
Wind: 7 mph from Northeast

Location: Kassel / Calden

Current Time: Jul 5, 2015 at 12:34:25 PM

Latest Report: Jul 5, 2015 at 11:50 AM


Visibility: 6 mi

Pressure: 30.07 "Hg

Humidity: 62%

Dew point: 70 °F

Location of KasselLocation

Historic Weather in Kassel — Graph

°F

Kassel temperature yesterday

Maximum temperature yesterday: 97 °F (at 2:20 PM)
Minimum temperature yesterday: 68 °F (at 6:20 AM)
Average temperature yesterday: 85 °F

Past Weeks' High & Low Weather Summary

 TemperatureHumidityPressure
High97 °F (Jul 4, 2:20 PM)100% (Jun 23, 6:50 AM)30.27 "Hg (Jun 23, 6:50 AM)
Low46 °F (Jun 23, 5:50 AM)30% (Jun 22, 8:20 AM)29.68 "Hg (Jun 22, 8:20 PM)
Average68 °F65%30.09 "Hg
* Reported Jun 20 11:20 AM — Jul 5 11:20 AM, Kassel, Weather by CustomWeather, © 2015

Note: Actual official high and low records may vary slightly from our data, if they occured in-between our weather recording intervals... More about our weather records

Advertising

Kassel weather history for previous 24 hours

 ConditionsComfort  
Time TempWeatherWind HumidityBarometerVisibility
11:20 AM
Sun, Jul 5
84 °FClear.6 mph66%30.07 "Hg5 mi
10:50 AM82 °FClear.5 mph66%30.07 "Hg6 mi
10:20 AM82 °FClear.2 mph66%30.07 "Hg6 mi
9:50 AM81 °FClear.3 mph70%30.07 "Hg6 mi
9:20 AM79 °FClear.5 mph74%30.09 "Hg6 mi
8:50 AM77 °FClear.3 mph74%30.09 "Hg6 mi
8:20 AM75 °FClear.3 mph78%30.09 "Hg6 mi
7:50 AM75 °FClear.3 mph83%30.09 "Hg6 mi
7:20 AM73 °FClear.1 mph83%30.09 "Hg6 mi
6:50 AM72 °FClear.2 mph88%30.09 "Hg6 mi
9:50 PM
Sat, Jul 4
77 °FSunny.6 mph79%30.09 "Hg10 mi
9:20 PM79 °FPassing clouds.5 mph74%30.09 "HgN/A
8:50 PM82 °FSunny.5 mph62%30.09 "Hg10 mi
8:20 PM84 °FPassing clouds.3 mph62%30.09 "HgN/A
7:50 PM84 °FPassing clouds.3 mph62%30.09 "HgN/A
7:20 PM82 °FPassing clouds.3 mph66%30.09 "HgN/A
6:50 PM75 °FLight rain. Scattered clouds.13 mph74%30.09 "HgN/A
6:20 PM82 °FThunderstorms. Scattered clouds.16 mph55%30.09 "HgN/A
5:50 PM90 °FThundershowers. Scattered clouds.7 mph41%30.07 "HgN/A
5:20 PM93 °FScattered showers. Scattered clouds.10 mph36%30.07 "HgN/A
4:50 PM97 °FPassing clouds.12 mph32%30.07 "HgN/A
4:20 PM97 °FSunny.12 mph34%30.09 "Hg10 mi
3:50 PM95 °FPassing clouds.8 mph34%30.09 "HgN/A
3:20 PM97 °FSunny.10 mph30%30.09 "Hg10 mi
2:50 PM97 °FPassing clouds.12 mph32%30.09 "HgN/A
2:20 PM97 °FSunny.12 mph32%30.09 "Hg10 mi
1:50 PM93 °FPassing clouds.12 mph39%30.09 "HgN/A
1:20 PM93 °FSunny.12 mph39%30.09 "Hg10 mi
12:50 PM93 °FSunny.12 mph41%30.12 "Hg10 mi
12:20 PM91 °FPassing clouds.13 mph44%30.12 "HgN/A
Weather by CustomWeather, © 2015

See weather overviewHow to use our weather pages